Time,TemperatureF,DewpointF,PressureIn,WindDirection,WindDirectionDegrees,WindSpeedMPH,WindSpeedGustMPH,Humidity,HourlyPrecipIn,Conditions,Clouds,dailyrainin,SoftwareType,DateUTC
2013-09-25 00:01:00,63.4,59.5,29.90,SE,127,0.0,1.0,87,0.00,,,0.00,WeatherCatV1.20B785,2013-09-25 04:01:00,
2013-09-25 00:02:00,63.3,59.4,29.90,SE,127,0.0,1.0,87,0.00,,,0.00,WeatherCatV1.20B785,2013-09-25 04:02:00,
2013-09-25 00:07:00,63.2,59.3,29.90,SE,126,0.0,0.0,87,0.00,,,0.00,WeatherCatV1.20B785,2013-09-25 04:07:00,
2013-09-25 00:12:00,62.9,59.3,29.91,ESE,122,0.0,0.0,88,0.00,,,0.00,WeatherCatV1.20B785,2013-09-25 04:12:00,
2013-09-25 00:17:00,62.6,59.3,29.91,ESE,122,0.0,0.0,89,0.00,,,0.00,WeatherCatV1.20B785,2013-09-25 04:17:00,
2013-09-25 00:22:00,62.3,59.0,29.91,ENE,76,1.0,3.0,89,0.00,,,0.00,WeatherCatV1.20B785,2013-09-25 04:22:00,
2013-09-25 00:27:00,62.5,59.2,29.91,ESE,110,0.0,4.0,89,0.00,,,0.00,WeatherCatV1.20B785,2013-09-25 04:27:00,
2013-09-25 00:32:00,62.6,59.3,29.90,ESE,110,1.0,2.0,89,0.00,,,0.00,WeatherCatV1.20B785,2013-09-25 04:32:00,
2013-09-25 00:37:00,62.6,59.3,29.90,ESE,117,1.0,1.0,89,0.00,,,0.00,WeatherCatV1.20B785,2013-09-25 04:37:00,
2013-09-25 00:42:00,62.6,59.3,29.90,ESE,120,0.0,0.0,89,0.00,,,0.00,WeatherCatV1.20B785,2013-09-25 04:42:00,
2013-09-25 00:47:00,62.8,59.5,29.90,ESE,120,0.0,0.0,89,0.00,,,0.00,WeatherCatV1.20B785,2013-09-25 04:47:00,
2013-09-25 00:52:00,62.9,59.6,29.90,ESE,120,0.0,1.0,89,0.00,,,0.00,WeatherCatV1.20B785,2013-09-25 04:52:00,
2013-09-25 00:57:00,62.9,59.6,29.90,ESE,120,0.0,0.0,89,0.00,,,0.00,WeatherCatV1.20B785,2013-09-25 04:57:00,
2013-09-25 01:02:00,62.9,59.6,29.89,ESE,120,0.0,0.0,89,0.00,,,0.00,WeatherCatV1.20B785,2013-09-25 05:02:00,
2013-09-25 01:07:00,63.0,59.7,29.90,ESE,120,0.0,1.0,89,0.00,,,0.00,WeatherCatV1.20B785,2013-09-25 05:07:00,
2013-09-25 01:12:00,63.0,59.7,29.90,ESE,120,0.0,0.0,89,0.00,,,0.00,WeatherCatV1.20B785,2013-09-25 05:12:00,
2013-09-25 01:17:00,63.0,59.7,29.90,ESE,120,0.0,1.0,89,0.00,,,0.00,WeatherCatV1.20B785,2013-09-25 05:17:00,
2013-09-25 01:22:00,62.9,59.3,29.90,ESE,120,0.0,1.0,88,0.00,,,0.00,WeatherCatV1.20B785,2013-09-25 05:22:00,
2013-09-25 01:27:00,62.9,59.6,29.89,ESE,120,1.0,1.0,89,0.00,,,0.00,WeatherCatV1.20B785,2013-09-25 05:27:00,
2013-09-25 01:32:00,63.0,59.7,29.89,SE,137,0.0,1.0,89,0.00,,,0.00,WeatherCatV1.20B785,2013-09-25 05:32:00,
2013-09-25 01:37:00,63.0,59.7,29.89,SE,138,1.0,1.0,89,0.00,,,0.00,WeatherCatV1.20B785,2013-09-25 05:37:00,
2013-09-25 01:42:00,63.1,59.8,29.89,SE,137,0.0,0.0,89,0.00,,,0.00,WeatherCatV1.20B785,2013-09-25 05:42:00,
2013-09-25 01:47:00,63.2,59.6,29.88,SE,137,0.0,0.0,88,0.00,,,0.00,WeatherCatV1.20B785,2013-09-25 05:47:00,
2013-09-25 01:52:00,63.2,59.6,29.89,ESE,119,0.0,0.0,88,0.00,,,0.00,WeatherCatV1.20B785,2013-09-25 05:52:00,
2013-09-25 01:56:00,63.0,59.7,29.88,ESE,119,0.0,0.0,89,0.00,,,0.00,WeatherCatV1.20B785,2013-09-25 05:56:00,
2013-09-25 02:01:00,62.8,59.5,29.89,ESE,120,0.0,0.0,89,0.00,,,0.00,WeatherCatV1.20B785,2013-09-25 06:01:00,
2013-09-25 02:06:00,62.6,59.3,29.88,ESE,120,0.0,0.0,89,0.00,,,0.00,WeatherCatV1.20B785,2013-09-25 06:06:00,
2013-09-25 02:11:00,62.4,59.1,29.88,East,84,0.0,4.0,89,0.00,,,0.00,WeatherCatV1.20B785,2013-09-25 06:11:00,
2013-09-25 02:16:00,62.6,59.3,29.88,ESE,120,1.0,1.0,89,0.00,,,0.00,WeatherCatV1.20B785,2013-09-25 06:16:00,
2013-09-25 02:21:00,62.6,59.3,29.88,SE,127,0.0,1.0,89,0.00,,,0.00,WeatherCatV1.20B785,2013-09-25 06:21:00,
2013-09-25 02:26:00,62.6,59.3,29.88,SE,126,0.0,1.0,89,0.00,,,0.00,WeatherCatV1.20B785,2013-09-25 06:26:00,
2013-09-25 02:31:00,62.6,59.3,29.88,SSE,150,1.0,2.0,89,0.00,,,0.00,WeatherCatV1.20B785,2013-09-25 06:31:00,
2013-09-25 02:36:00,62.8,59.2,29.88,ESE,115,0.0,0.0,88,0.00,,,0.00,WeatherCatV1.20B785,2013-09-25 06:36:00,
2013-09-25 02:41:00,62.7,59.4,29.88,ESE,115,0.0,0.0,89,0.00,,,0.00,WeatherCatV1.20B785,2013-09-25 06:41:00,
2013-09-25 02:46:00,62.5,59.2,29.88,ESE,115,0.0,0.0,89,0.00,,,0.00,WeatherCatV1.20B785,2013-09-25 06:46:00,
2013-09-25 02:51:00,62.3,59.3,29.88,ESE,115,0.0,0.0,90,0.00,,,0.00,WeatherCatV1.20B785,2013-09-25 06:51:00,
2013-09-25 02:56:00,62.1,59.1,29.87,ESE,115,0.0,1.0,90,0.00,,,0.00,WeatherCatV1.20B785,2013-09-25 06:56:00,
2013-09-25 03:01:00,62.0,59.3,29.87,ESE,115,0.0,0.0,91,0.00,,,0.00,WeatherCatV1.20B785,2013-09-25 07:01:00,
2013-09-25 03:06:00,61.9,59.2,29.86,ESE,115,0.0,0.0,91,0.00,,,0.00,WeatherCatV1.20B785,2013-09-25 07:06:00,
2013-09-25 03:11:00,61.9,58.9,29.87,ESE,115,0.0,0.0,90,0.00,,,0.00,WeatherCatV1.20B785,2013-09-25 07:11:00,
2013-09-25 03:16:00,61.9,58.9,29.86,ESE,115,0.0,0.0,90,0.00,,,0.00,WeatherCatV1.20B785,2013-09-25 07:16:00,
2013-09-25 03:21:00,62.0,59.0,29.86,ESE,115,0.0,0.0,90,0.00,,,0.00,WeatherCatV1.20B785,2013-09-25 07:21:00,
2013-09-25 03:26:00,62.0,59.0,29.86,ESE,115,0.0,0.0,90,0.00,,,0.00,WeatherCatV1.20B785,2013-09-25 07:26:00,
2013-09-25 03:31:00,62.0,59.0,29.86,ESE,115,0.0,1.0,90,0.00,,,0.00,WeatherCatV1.20B785,2013-09-25 07:31:00,
2013-09-25 03:36:00,62.2,59.2,29.87,East,93,0.0,0.0,90,0.00,,,0.00,WeatherCatV1.20B785,2013-09-25 07:36:00,
2013-09-25 03:41:00,62.2,59.5,29.87,East,93,0.0,0.0,91,0.00,,,0.00,WeatherCatV1.20B785,2013-09-25 07:41:00,
2013-09-25 03:46:00,62.2,59.5,29.87,East,93,0.0,0.0,91,0.00,,,0.00,WeatherCatV1.20B785,2013-09-25 07:46:00,
2013-09-25 03:51:00,62.0,59.3,29.87,East,93,0.0,0.0,91,0.00,,,0.00,WeatherCatV1.20B785,2013-09-25 07:51:00,
2013-09-25 03:56:00,62.0,59.3,29.87,East,93,0.0,0.0,91,0.00,,,0.00,WeatherCatV1.20B785,2013-09-25 07:56:00,
2013-09-25 04:01:00,62.0,59.7,29.87,East,93,0.0,0.0,92,0.00,,,0.00,WeatherCatV1.20B785,2013-09-25 08:01:00,
2013-09-25 04:06:00,61.9,59.5,29.86,East,93,0.0,0.0,92,0.00,,,0.00,WeatherCatV1.20B785,2013-09-25 08:06:00,
2013-09-25 04:11:00,61.8,59.5,29.86,East,93,0.0,0.0,92,0.00,,,0.00,WeatherCatV1.20B785,2013-09-25 08:11:00,
2013-09-25 04:16:00,61.9,59.5,29.86,East,93,0.0,0.0,92,0.00,,,0.00,WeatherCatV1.20B785,2013-09-25 08:16:00,
2013-09-25 04:21:00,61.8,59.5,29.86,East,93,0.0,0.0,92,0.00,,,0.00,WeatherCatV1.20B785,2013-09-25 08:21:00,
2013-09-25 04:26:00,61.8,59.5,29.86,East,93,0.0,0.0,92,0.00,,,0.00,WeatherCatV1.20B785,2013-09-25 08:26:00,
2013-09-25 04:31:00,61.8,59.5,29.86,East,93,0.0,0.0,92,0.00,,,0.00,WeatherCatV1.20B785,2013-09-25 08:31:00,
2013-09-25 04:36:00,61.8,59.5,29.86,East,93,0.0,0.0,92,0.00,,,0.00,WeatherCatV1.20B785,2013-09-25 08:36:00,
2013-09-25 04:41:00,61.7,59.7,29.85,East,93,0.0,0.0,93,0.00,,,0.00,WeatherCatV1.20B785,2013-09-25 08:41:00,
2013-09-25 04:46:00,61.7,59.3,29.86,East,93,0.0,0.0,92,0.00,,,0.00,WeatherCatV1.20B785,2013-09-25 08:46:00,
2013-09-25 04:51:00,61.6,59.2,29.86,East,93,0.0,0.0,92,0.00,,,0.00,WeatherCatV1.20B785,2013-09-25 08:51:00,
2013-09-25 04:56:00,61.6,59.5,29.86,East,93,0.0,0.0,93,0.00,,,0.00,WeatherCatV1.20B785,2013-09-25 08:56:00,
2013-09-25 05:01:00,61.6,59.5,29.85,East,93,0.0,0.0,93,0.00,,,0.00,WeatherCatV1.20B785,2013-09-25 09:01:00,
2013-09-25 05:06:00,61.6,59.5,29.86,East,93,0.0,0.0,93,0.00,,,0.00,WeatherCatV1.20B785,2013-09-25 09:06:00,
2013-09-25 05:11:00,61.6,59.5,29.86,East,93,0.0,0.0,93,0.00,,,0.00,WeatherCatV1.20B785,2013-09-25 09:11:00,
2013-09-25 05:16:00,61.6,59.5,29.86,East,93,0.0,0.0,93,0.00,,,0.00,WeatherCatV1.20B785,2013-09-25 09:16:00,
2013-09-25 05:21:00,61.5,59.5,29.86,East,93,0.0,0.0,93,0.00,,,0.00,WeatherCatV1.20B785,2013-09-25 09:21:00,
2013-09-25 05:26:00,61.5,59.5,29.86,East,93,0.0,0.0,93,0.00,,,0.00,WeatherCatV1.20B785,2013-09-25 09:26:00,
2013-09-25 05:31:00,61.4,59.3,29.86,East,93,0.0,0.0,93,0.00,,,0.00,WeatherCatV1.20B785,2013-09-25 09:31:00,
2013-09-25 05:36:00,61.4,59.3,29.86,East,93,0.0,0.0,93,0.00,,,0.00,WeatherCatV1.20B785,2013-09-25 09:36:00,
2013-09-25 05:41:00,61.3,59.3,29.86,East,93,0.0,0.0,93,0.00,,,0.00,WeatherCatV1.20B785,2013-09-25 09:41:00,
2013-09-25 05:46:00,61.3,59.3,29.86,East,92,1.0,1.0,93,0.00,,,0.00,WeatherCatV1.20B785,2013-09-25 09:46:00,
2013-09-25 05:51:00,61.4,59.7,29.87,East,92,0.0,1.0,94,0.00,,,0.00,WeatherCatV1.20B785,2013-09-25 09:51:00,
2013-09-25 05:56:00,61.4,59.7,29.86,East,93,0.0,0.0,94,0.00,,,0.00,WeatherCatV1.20B785,2013-09-25 09:56:00,
2013-09-25 06:01:00,61.3,59.6,29.87,East,93,0.0,0.0,94,0.00,,,0.00,WeatherCatV1.20B785,2013-09-25 10:01:00,
2013-09-25 06:06:00,61.2,59.2,29.87,East,93,0.0,0.0,93,0.00,,,0.01,WeatherCatV1.20B785,2013-09-25 10:06:00,
2013-09-25 06:11:00,61.1,59.4,29.87,East,93,0.0,0.0,94,0.20,,,0.03,WeatherCatV1.20B785,2013-09-25 10:11:00,
2013-09-25 06:16:00,61.0,59.5,29.86,East,93,0.0,0.0,95,0.18,,,0.05,WeatherCatV1.20B785,2013-09-25 10:16:00,
2013-09-25 06:21:00,60.9,59.5,29.86,East,93,0.0,0.0,95,0.16,,,0.06,WeatherCatV1.20B785,2013-09-25 10:21:00,
2013-09-25 06:26:00,60.7,59.3,29.86,East,93,0.0,0.0,95,0.11,,,0.07,WeatherCatV1.20B785,2013-09-25 10:26:00,
2013-09-25 06:31:00,60.5,59.1,29.86,East,93,0.0,0.0,95,0.11,,,0.07,WeatherCatV1.20B785,2013-09-25 10:31:00,
2013-09-25 06:36:00,60.4,59.2,29.86,East,93,0.0,0.0,96,0.15,,,0.09,WeatherCatV1.20B785,2013-09-25 10:36:00,
2013-09-25 06:41:00,60.3,59.2,29.86,East,93,0.0,0.0,96,0.16,,,0.10,WeatherCatV1.20B785,2013-09-25 10:41:00,
2013-09-25 06:46:00,60.2,59.0,29.86,East,93,0.0,0.0,96,0.12,,,0.11,WeatherCatV1.20B785,2013-09-25 10:46:00,
2013-09-25 06:51:00,60.1,59.0,29.86,East,93,0.0,0.0,96,0.08,,,0.11,WeatherCatV1.20B785,2013-09-25 10:51:00,
2013-09-25 06:56:00,60.0,58.8,29.86,East,93,0.0,0.0,96,0.07,,,0.12,WeatherCatV1.20B785,2013-09-25 10:56:00,
2013-09-25 07:01:00,60.1,59.0,29.86,East,93,0.0,0.0,96,0.08,,,0.13,WeatherCatV1.20B785,2013-09-25 11:01:00,
2013-09-25 07:06:00,59.9,58.8,29.86,East,93,0.0,0.0,96,0.08,,,0.13,WeatherCatV1.20B785,2013-09-25 11:06:00,
2013-09-25 07:11:00,59.9,59.0,29.86,East,93,0.0,0.0,97,0.05,,,0.13,WeatherCatV1.20B785,2013-09-25 11:11:00,
2013-09-25 07:16:00,60.0,59.1,29.86,East,93,0.0,0.0,97,0.04,,,0.13,WeatherCatV1.20B785,2013-09-25 11:16:00,
2013-09-25 07:21:00,59.9,59.0,29.86,East,93,0.0,0.0,97,0.00,,,0.14,WeatherCatV1.20B785,2013-09-25 11:21:00,
2013-09-25 07:26:00,59.8,58.9,29.86,East,93,0.0,0.0,97,0.00,,,0.14,WeatherCatV1.20B785,2013-09-25 11:26:00,
2013-09-25 07:31:00,59.8,58.9,29.86,East,93,0.0,0.0,97,0.04,,,0.14,WeatherCatV1.20B785,2013-09-25 11:31:00,
2013-09-25 07:36:00,59.9,59.0,29.85,East,93,0.0,0.0,97,0.13,,,0.16,WeatherCatV1.20B785,2013-09-25 11:36:00,
2013-09-25 07:41:00,59.9,59.0,29.85,East,93,0.0,0.0,97,0.13,,,0.17,WeatherCatV1.20B785,2013-09-25 11:41:00,
2013-09-25 07:46:00,59.9,59.0,29.85,East,93,0.0,0.0,97,0.10,,,0.17,WeatherCatV1.20B785,2013-09-25 11:46:00,
2013-09-25 07:51:00,60.0,59.1,29.84,East,93,0.0,0.0,97,0.20,,,0.19,WeatherCatV1.20B785,2013-09-25 11:51:00,
2013-09-25 07:56:00,59.9,59.0,29.84,East,93,0.0,0.0,97,0.12,,,0.20,WeatherCatV1.20B785,2013-09-25 11:56:00,
2013-09-25 08:01:00,59.9,59.0,29.84,East,93,0.0,0.0,97,0.11,,,0.20,WeatherCatV1.20B785,2013-09-25 12:01:00,
2013-09-25 08:06:00,59.9,59.0,29.84,East,93,0.0,0.0,97,0.07,,,0.21,WeatherCatV1.20B785,2013-09-25 12:06:00,
2013-09-25 08:11:00,59.7,58.8,29.85,East,93,0.0,0.0,97,0.07,,,0.21,WeatherCatV1.20B785,2013-09-25 12:11:00,
2013-09-25 08:16:00,59.7,58.8,29.85,East,93,0.0,0.0,97,0.05,,,0.21,WeatherCatV1.20B785,2013-09-25 12:16:00,
2013-09-25 08:21:00,59.7,58.8,29.85,East,93,0.0,0.0,97,0.04,,,0.22,WeatherCatV1.20B785,2013-09-25 12:21:00,
2013-09-25 08:26:00,59.8,59.2,29.86,East,93,0.0,0.0,98,0.04,,,0.22,WeatherCatV1.20B785,2013-09-25 12:26:00,
2013-09-25 08:27:00,59.8,59.2,29.86,East,93,0.0,0.0,98,0.04,,,0.22,WeatherCatV1.20B785,2013-09-25 12:27:00,
2013-09-25 08:32:00,59.7,58.8,29.86,East,90,0.0,1.0,97,0.04,,,0.22,WeatherCatV1.20B785,2013-09-25 12:32:00,
2013-09-25 08:37:00,59.8,58.9,29.86,East,90,0.0,0.0,97,0.00,,,0.22,WeatherCatV1.20B785,2013-09-25 12:37:00,
2013-09-25 08:42:00,59.8,59.2,29.86,East,91,0.0,0.0,98,0.18,,,0.24,WeatherCatV1.20B785,2013-09-25 12:42:00,
2013-09-25 08:47:00,59.8,59.2,29.86,East,91,0.0,0.0,98,0.28,,,0.26,WeatherCatV1.20B785,2013-09-25 12:47:00,
2013-09-25 08:52:00,59.8,59.2,29.86,East,91,0.0,0.0,98,0.21,,,0.28,WeatherCatV1.20B785,2013-09-25 12:52:00,
2013-09-25 08:57:00,59.9,59.3,29.87,East,90,0.0,0.0,98,0.22,,,0.30,WeatherCatV1.20B785,2013-09-25 12:57:00,
2013-09-25 09:02:00,59.9,59.3,29.87,East,91,0.0,0.0,98,0.19,,,0.31,WeatherCatV1.20B785,2013-09-25 13:02:00,
2013-09-25 09:07:00,59.9,59.3,29.87,East,91,0.0,0.0,98,0.19,,,0.33,WeatherCatV1.20B785,2013-09-25 13:07:00,
2013-09-25 09:12:00,60.0,59.4,29.87,East,91,0.0,0.0,98,0.13,,,0.34,WeatherCatV1.20B785,2013-09-25 13:12:00,
2013-09-25 09:17:00,60.0,59.4,29.87,East,91,0.0,0.0,98,0.08,,,0.34,WeatherCatV1.20B785,2013-09-25 13:17:00,
2013-09-25 09:22:00,60.0,59.4,29.87,East,83,0.0,0.0,98,0.05,,,0.34,WeatherCatV1.20B785,2013-09-25 13:22:00,
2013-09-25 09:27:00,60.0,59.1,29.88,East,89,0.0,0.0,97,0.00,,,0.34,WeatherCatV1.20B785,2013-09-25 13:27:00,
2013-09-25 09:32:00,60.1,59.5,29.88,East,89,0.0,0.0,98,0.00,,,0.34,WeatherCatV1.20B785,2013-09-25 13:32:00,
2013-09-25 09:37:00,60.1,59.2,29.88,East,87,0.0,0.0,97,0.00,,,0.35,WeatherCatV1.20B785,2013-09-25 13:37:00,
2013-09-25 09:42:00,60.2,59.3,29.88,SSE,150,0.0,2.0,97,0.00,,,0.35,WeatherCatV1.20B785,2013-09-25 13:42:00,
2013-09-25 09:47:00,60.3,59.4,29.88,SE,143,0.0,0.0,97,0.00,,,0.35,WeatherCatV1.20B785,2013-09-25 13:47:00,
2013-09-25 09:52:00,60.5,59.6,29.88,SE,129,0.0,1.0,97,0.00,,,0.35,WeatherCatV1.20B785,2013-09-25 13:52:00,
2013-09-25 09:57:00,60.7,59.8,29.88,SE,129,1.0,1.0,97,0.00,,,0.35,WeatherCatV1.20B785,2013-09-25 13:57:00,
2013-09-25 10:02:00,60.8,59.9,29.88,SE,140,0.0,1.0,97,0.00,,,0.35,WeatherCatV1.20B785,2013-09-25 14:02:00,
2013-09-25 10:07:00,60.9,60.0,29.88,NE,52,0.0,0.0,97,0.00,,,0.36,WeatherCatV1.20B785,2013-09-25 14:07:00,
2013-09-25 10:12:00,61.1,60.2,29.88,East,94,0.0,0.0,97,0.00,,,0.36,WeatherCatV1.20B785,2013-09-25 14:12:00,
2013-09-25 10:17:00,61.1,60.0,29.87,East,94,0.0,0.0,96,0.00,,,0.36,WeatherCatV1.20B785,2013-09-25 14:17:00,
2013-09-25 10:22:00,61.2,60.3,29.88,East,94,0.0,0.0,97,0.04,,,0.37,WeatherCatV1.20B785,2013-09-25 14:22:00,
2013-09-25 10:27:00,61.5,60.6,29.88,East,95,0.0,0.0,97,0.04,,,0.37,WeatherCatV1.20B785,2013-09-25 14:27:00,
2013-09-25 10:32:00,61.7,60.8,29.88,East,95,0.0,0.0,97,0.04,,,0.37,WeatherCatV1.20B785,2013-09-25 14:32:00,
2013-09-25 10:37:00,61.8,60.9,29.88,East,94,0.0,0.0,97,0.00,,,0.37,WeatherCatV1.20B785,2013-09-25 14:37:00,
2013-09-25 10:42:00,61.8,60.6,29.88,East,95,0.0,0.0,96,0.00,,,0.37,WeatherCatV1.20B785,2013-09-25 14:42:00,
2013-09-25 10:47:00,61.8,60.6,29.88,East,96,0.0,0.0,96,0.00,,,0.37,WeatherCatV1.20B785,2013-09-25 14:47:00,
2013-09-25 10:52:00,61.8,60.6,29.88,East,96,0.0,0.0,96,0.00,,,0.37,WeatherCatV1.20B785,2013-09-25 14:52:00,
2013-09-25 10:57:00,61.7,60.5,29.88,East,96,0.0,0.0,96,0.00,,,0.38,WeatherCatV1.20B785,2013-09-25 14:57:00,
2013-09-25 11:02:00,61.7,60.5,29.88,East,96,1.0,1.0,96,0.00,,,0.38,WeatherCatV1.20B785,2013-09-25 15:02:00,
2013-09-25 11:07:00,61.6,60.2,29.88,ESE,114,0.0,1.0,95,0.00,,,0.38,WeatherCatV1.20B785,2013-09-25 15:07:00,
2013-09-25 11:12:00,61.4,60.0,29.88,ESE,108,0.0,0.0,95,0.00,,,0.38,WeatherCatV1.20B785,2013-09-25 15:12:00,
2013-09-25 11:17:00,61.2,59.8,29.88,ESE,108,0.0,0.0,95,0.00,,,0.38,WeatherCatV1.20B785,2013-09-25 15:17:00,
2013-09-25 11:22:00,61.1,59.7,29.88,ESE,108,0.0,0.0,95,0.00,,,0.38,WeatherCatV1.20B785,2013-09-25 15:22:00,
2013-09-25 11:27:00,60.9,59.5,29.88,ESE,108,0.0,0.0,95,0.00,,,0.38,WeatherCatV1.20B785,2013-09-25 15:27:00,
2013-09-25 11:32:00,61.1,60.0,29.88,ESE,108,0.0,0.0,96,0.00,,,0.38,WeatherCatV1.20B785,2013-09-25 15:32:00,
2013-09-25 11:37:00,61.0,59.8,29.88,ESE,108,0.0,0.0,96,0.00,,,0.38,WeatherCatV1.20B785,2013-09-25 15:37:00,
2013-09-25 11:42:00,61.0,59.8,29.88,ESE,108,0.0,0.0,96,0.00,,,0.38,WeatherCatV1.20B785,2013-09-25 15:42:00,
2013-09-25 11:47:00,61.1,60.0,29.88,ESE,108,0.0,0.0,96,0.00,,,0.38,WeatherCatV1.20B785,2013-09-25 15:47:00,
2013-09-25 11:52:00,61.3,60.2,29.88,ESE,109,0.0,0.0,96,0.00,,,0.38,WeatherCatV1.20B785,2013-09-25 15:52:00,
2013-09-25 11:57:00,61.5,60.6,29.88,ESE,108,0.0,0.0,97,0.00,,,0.39,WeatherCatV1.20B785,2013-09-25 15:57:00,
2013-09-25 12:02:00,61.6,60.5,29.87,ESE,108,0.0,0.0,96,0.06,,,0.40,WeatherCatV1.20B785,2013-09-25 16:02:00,
2013-09-25 12:07:00,61.6,60.5,29.88,ESE,108,0.0,0.0,96,0.06,,,0.40,WeatherCatV1.20B785,2013-09-25 16:07:00,
2013-09-25 12:12:00,61.7,60.5,29.88,ESE,108,0.0,0.0,96,0.06,,,0.40,WeatherCatV1.20B785,2013-09-25 16:12:00,
2013-09-25 12:17:00,61.7,60.5,29.88,ESE,108,0.0,0.0,96,0.04,,,0.40,WeatherCatV1.20B785,2013-09-25 16:17:00,
2013-09-25 12:22:00,61.8,60.6,29.88,ESE,108,0.0,0.0,96,0.00,,,0.40,WeatherCatV1.20B785,2013-09-25 16:22:00,
2013-09-25 12:27:00,61.7,60.5,29.88,ESE,108,0.0,0.0,96,0.00,,,0.41,WeatherCatV1.20B785,2013-09-25 16:27:00,
2013-09-25 12:32:00,61.7,60.5,29.88,ESE,108,0.0,0.0,96,0.00,,,0.41,WeatherCatV1.20B785,2013-09-25 16:32:00,
2013-09-25 12:37:00,61.6,60.5,29.88,ESE,108,0.0,0.0,96,0.19,,,0.43,WeatherCatV1.20B785,2013-09-25 16:37:00,
2013-09-25 12:42:00,61.5,60.3,29.87,ESE,108,0.0,0.0,96,0.19,,,0.44,WeatherCatV1.20B785,2013-09-25 16:42:00,
2013-09-25 12:47:00,61.4,60.2,29.87,ESE,108,0.0,0.0,96,0.14,,,0.46,WeatherCatV1.20B785,2013-09-25 16:47:00,
2013-09-25 12:52:00,61.6,60.7,29.87,ESE,108,0.0,0.0,97,0.19,,,0.47,WeatherCatV1.20B785,2013-09-25 16:52:00,
2013-09-25 12:57:00,61.8,60.9,29.86,ESE,108,0.0,0.0,97,0.14,,,0.48,WeatherCatV1.20B785,2013-09-25 16:57:00,
2013-09-25 13:02:00,61.9,61.0,29.86,ESE,108,0.0,0.0,97,0.08,,,0.48,WeatherCatV1.20B785,2013-09-25 17:02:00,
2013-09-25 13:07:00,62.2,61.3,29.86,ESE,108,0.0,0.0,97,0.05,,,0.48,WeatherCatV1.20B785,2013-09-25 17:07:00,
2013-09-25 13:12:00,62.6,61.7,29.86,ESE,108,0.0,0.0,97,0.00,,,0.48,WeatherCatV1.20B785,2013-09-25 17:12:00,
2013-09-25 13:17:00,62.6,61.4,29.86,ESE,108,0.0,0.0,96,0.00,,,0.48,WeatherCatV1.20B785,2013-09-25 17:17:00,
2013-09-25 13:22:00,62.7,61.5,29.86,ESE,108,0.0,0.0,96,0.00,,,0.48,WeatherCatV1.20B785,2013-09-25 17:22:00,
2013-09-25 13:27:00,62.9,61.7,29.86,ESE,108,0.0,0.0,96,0.00,,,0.48,WeatherCatV1.20B785,2013-09-25 17:27:00,
2013-09-25 13:32:00,62.9,61.4,29.86,East,84,0.0,0.0,95,0.00,,,0.48,WeatherCatV1.20B785,2013-09-25 17:32:00,
2013-09-25 13:37:00,62.6,61.1,29.86,East,85,0.0,0.0,95,0.00,,,0.49,WeatherCatV1.20B785,2013-09-25 17:37:00,
2013-09-25 13:42:00,62.5,61.0,29.86,East,85,0.0,0.0,95,0.41,,,0.52,WeatherCatV1.20B785,2013-09-25 17:42:00,
2013-09-25 13:47:00,62.0,60.0,29.86,NE,56,0.0,4.0,93,0.23,,,0.54,WeatherCatV1.20B785,2013-09-25 17:47:00,
2013-09-25 13:52:00,61.8,60.3,29.86,NE,56,0.0,0.0,95,0.54,,,0.58,WeatherCatV1.20B785,2013-09-25 17:52:00,
2013-09-25 13:57:00,61.7,60.2,29.85,ENE,57,0.0,0.0,95,0.35,,,0.61,WeatherCatV1.20B785,2013-09-25 17:57:00,
2013-09-25 14:02:00,61.6,60.2,29.85,ENE,58,0.0,0.0,95,0.34,,,0.63,WeatherCatV1.20B785,2013-09-25 18:02:00,
2013-09-25 14:07:00,61.5,60.3,29.85,ENE,58,0.0,0.0,96,0.16,,,0.64,WeatherCatV1.20B785,2013-09-25 18:07:00,
2013-09-25 14:12:00,61.5,60.3,29.85,ENE,58,0.0,0.0,96,0.13,,,0.65,WeatherCatV1.20B785,2013-09-25 18:12:00,
2013-09-25 14:17:00,61.6,60.5,29.85,ENE,58,0.0,0.0,96,0.16,,,0.67,WeatherCatV1.20B785,2013-09-25 18:17:00,
2013-09-25 14:22:00,61.5,60.3,29.85,ENE,58,0.0,0.0,96,0.14,,,0.68,WeatherCatV1.20B785,2013-09-25 18:22:00,
2013-09-25 14:27:00,61.7,60.8,29.84,ENE,58,0.0,0.0,97,0.15,,,0.69,WeatherCatV1.20B785,2013-09-25 18:27:00,
2013-09-25 14:32:00,62.0,61.1,29.84,ENE,58,0.0,0.0,97,0.17,,,0.70,WeatherCatV1.20B785,2013-09-25 18:32:00,
2013-09-25 14:37:00,62.2,61.3,29.84,ENE,58,0.0,0.0,97,0.07,,,0.70,WeatherCatV1.20B785,2013-09-25 18:37:00,
2013-09-25 14:42:00,62.2,61.0,29.84,ENE,58,0.0,0.0,96,0.04,,,0.70,WeatherCatV1.20B785,2013-09-25 18:42:00,
2013-09-25 14:47:00,62.2,60.8,29.84,ENE,58,0.0,0.0,95,0.04,,,0.71,WeatherCatV1.20B785,2013-09-25 18:47:00,
2013-09-25 14:52:00,62.4,61.2,29.83,ENE,58,0.0,0.0,96,0.04,,,0.71,WeatherCatV1.20B785,2013-09-25 18:52:00,
2013-09-25 14:57:00,62.7,61.5,29.83,ENE,58,0.0,0.0,96,0.04,,,0.71,WeatherCatV1.20B785,2013-09-25 18:57:00,
2013-09-25 15:02:00,62.8,61.3,29.83,ENE,58,0.0,0.0,95,0.00,,,0.71,WeatherCatV1.20B785,2013-09-25 19:02:00,
2013-09-25 15:07:00,62.9,61.1,29.83,ENE,58,0.0,0.0,94,0.00,,,0.71,WeatherCatV1.20B785,2013-09-25 19:07:00,
2013-09-25 15:12:00,63.0,61.5,29.83,ENE,58,0.0,0.0,95,0.00,,,0.71,WeatherCatV1.20B785,2013-09-25 19:12:00,
2013-09-25 15:17:00,63.0,61.5,29.83,ENE,58,0.0,0.0,95,0.00,,,0.71,WeatherCatV1.20B785,2013-09-25 19:17:00,
2013-09-25 15:22:00,63.2,62.0,29.83,ENE,58,0.0,0.0,96,0.00,,,0.71,WeatherCatV1.20B785,2013-09-25 19:22:00,
2013-09-25 15:27:00,63.6,62.4,29.83,ENE,58,0.0,0.0,96,0.00,,,0.71,WeatherCatV1.20B785,2013-09-25 19:27:00,
2013-09-25 15:32:00,63.5,61.7,29.83,ENE,58,0.0,0.0,94,0.00,,,0.71,WeatherCatV1.20B785,2013-09-25 19:32:00,
2013-09-25 15:37:00,63.2,61.4,29.83,NE,53,1.0,2.0,94,0.00,,,0.71,WeatherCatV1.20B785,2013-09-25 19:37:00,
2013-09-25 15:42:00,63.1,61.3,29.83,ENE,65,0.0,0.0,94,0.00,,,0.71,WeatherCatV1.20B785,2013-09-25 19:42:00,
2013-09-25 15:47:00,63.2,61.4,29.82,ENE,58,0.0,4.0,94,0.00,,,0.71,WeatherCatV1.20B785,2013-09-25 19:47:00,
2013-09-25 15:52:00,63.2,61.4,29.82,ENE,62,1.0,2.0,94,0.00,,,0.71,WeatherCatV1.20B785,2013-09-25 19:52:00,
2013-09-25 15:57:00,63.3,61.8,29.82,ENE,73,0.0,1.0,95,0.00,,,0.71,WeatherCatV1.20B785,2013-09-25 19:57:00,
2013-09-25 16:02:00,63.5,61.4,29.82,ENE,63,3.0,3.0,93,0.00,,,0.71,WeatherCatV1.20B785,2013-09-25 20:02:00,
2013-09-25 16:07:00,63.7,61.9,29.82,ENE,67,1.0,3.0,94,0.00,,,0.71,WeatherCatV1.20B785,2013-09-25 20:07:00,
2013-09-25 16:12:00,63.4,61.3,29.82,NE,55,2.0,4.0,93,0.00,,,0.71,WeatherCatV1.20B785,2013-09-25 20:12:00,
2013-09-25 16:17:00,63.2,61.1,29.82,ENE,60,2.0,3.0,93,0.00,,,0.71,WeatherCatV1.20B785,2013-09-25 20:17:00,
2013-09-25 16:22:00,63.2,61.1,29.82,ESE,108,0.0,0.0,93,0.00,,,0.71,WeatherCatV1.20B785,2013-09-25 20:22:00,
2013-09-25 16:27:00,63.1,61.0,29.82,NE,56,2.0,6.0,93,0.00,,,0.71,WeatherCatV1.20B785,2013-09-25 20:27:00,
2013-09-25 16:32:00,63.1,61.3,29.82,ENE,74,1.0,2.0,94,0.00,,,0.71,WeatherCatV1.20B785,2013-09-25 20:32:00,
2013-09-25 16:37:00,62.9,60.5,29.82,NE,50,2.0,7.0,92,0.00,,,0.71,WeatherCatV1.20B785,2013-09-25 20:37:00,
2013-09-25 16:42:00,62.8,60.4,29.82,East,96,1.0,4.0,92,0.00,,,0.71,WeatherCatV1.20B785,2013-09-25 20:42:00,
2013-09-25 16:47:00,62.6,60.2,29.82,NE,53,0.0,6.0,92,0.00,,,0.71,WeatherCatV1.20B785,2013-09-25 20:47:00,
2013-09-25 16:52:00,62.4,59.4,29.82,NE,38,6.0,9.0,90,0.00,,,0.71,WeatherCatV1.20B785,2013-09-25 20:52:00,
2013-09-25 16:57:00,62.2,59.5,29.82,ENE,60,4.0,5.0,91,0.00,,,0.71,WeatherCatV1.20B785,2013-09-25 20:57:00,
2013-09-25 17:02:00,62.2,60.2,29.82,East,81,0.0,1.0,93,0.00,,,0.71,WeatherCatV1.20B785,2013-09-25 21:02:00,
2013-09-25 17:07:00,62.2,59.8,29.82,NE,56,0.0,3.0,92,0.00,,,0.71,WeatherCatV1.20B785,2013-09-25 21:07:00,
2013-09-25 17:12:00,62.4,60.0,29.83,NNE,23,2.0,4.0,92,0.00,,,0.71,WeatherCatV1.20B785,2013-09-25 21:12:00,
2013-09-25 17:17:00,62.4,59.4,29.83,ENE,68,1.0,2.0,90,0.00,,,0.71,WeatherCatV1.20B785,2013-09-25 21:17:00,
2013-09-25 17:22:00,62.4,59.4,29.83,ENE,72,1.0,5.0,90,0.00,,,0.71,WeatherCatV1.20B785,2013-09-25 21:22:00,
2013-09-25 17:27:00,62.4,59.4,29.83,ENE,63,0.0,1.0,90,0.00,,,0.71,WeatherCatV1.20B785,2013-09-25 21:27:00,
2013-09-25 17:32:00,62.3,59.6,29.83,ENE,78,0.0,1.0,91,0.00,,,0.71,WeatherCatV1.20B785,2013-09-25 21:32:00,
2013-09-25 17:37:00,62.2,59.2,29.83,ESE,108,2.0,4.0,90,0.00,,,0.71,WeatherCatV1.20B785,2013-09-25 21:37:00,
2013-09-25 17:42:00,62.1,59.1,29.83,ENE,77,3.0,5.0,90,0.00,,,0.71,WeatherCatV1.20B785,2013-09-25 21:42:00,
2013-09-25 17:47:00,62.1,59.1,29.83,ENE,67,2.0,3.0,90,0.00,,,0.71,WeatherCatV1.20B785,2013-09-25 21:47:00,
2013-09-25 17:52:00,62.1,59.4,29.83,ENE,76,0.0,2.0,91,0.00,,,0.71,WeatherCatV1.20B785,2013-09-25 21:52:00,
2013-09-25 17:57:00,62.0,59.3,29.83,ENE,62,0.0,1.0,91,0.00,,,0.71,WeatherCatV1.20B785,2013-09-25 21:57:00,
2013-09-25 18:02:00,61.9,58.9,29.83,ENE,58,2.0,4.0,90,0.00,,,0.71,WeatherCatV1.20B785,2013-09-25 22:02:00,
2013-09-25 18:07:00,61.9,58.9,29.84,ENE,75,1.0,1.0,90,0.00,,,0.71,WeatherCatV1.20B785,2013-09-25 22:07:00,
2013-09-25 18:12:00,62.0,59.7,29.84,ENE,75,0.0,1.0,92,0.00,,,0.71,WeatherCatV1.20B785,2013-09-25 22:12:00,
2013-09-25 18:17:00,61.9,59.2,29.84,ENE,59,2.0,6.0,91,0.00,,,0.71,WeatherCatV1.20B785,2013-09-25 22:17:00,
2013-09-25 18:22:00,61.7,58.4,29.84,East,98,0.0,1.0,89,0.00,,,0.71,WeatherCatV1.20B785,2013-09-25 22:22:00,
2013-09-25 18:27:00,61.7,58.4,29.84,East,84,1.0,4.0,89,0.00,,,0.71,WeatherCatV1.20B785,2013-09-25 22:27:00,
2013-09-25 18:32:00,61.6,58.9,29.84,East,84,1.0,1.0,91,0.00,,,0.71,WeatherCatV1.20B785,2013-09-25 22:32:00,
2013-09-25 18:37:00,61.4,58.1,29.84,ENE,67,1.0,3.0,89,0.00,,,0.71,WeatherCatV1.20B785,2013-09-25 22:37:00,
2013-09-25 18:42:00,61.4,58.4,29.84,NE,47,2.0,5.0,90,0.00,,,0.71,WeatherCatV1.20B785,2013-09-25 22:42:00,
2013-09-25 18:47:00,61.3,58.3,29.84,NNE,33,0.0,3.0,90,0.00,,,0.71,WeatherCatV1.20B785,2013-09-25 22:47:00,
2013-09-25 18:52:00,61.1,58.1,29.84,ENE,58,2.0,5.0,90,0.00,,,0.71,WeatherCatV1.20B785,2013-09-25 22:52:00,
2013-09-25 18:57:00,60.9,58.2,29.84,NE,53,1.0,4.0,91,0.00,,,0.71,WeatherCatV1.20B785,2013-09-25 22:57:00,
2013-09-25 19:02:00,60.9,58.6,29.84,ENE,60,1.0,1.0,92,0.00,,,0.71,WeatherCatV1.20B785,2013-09-25 23:02:00,
2013-09-25 19:07:00,60.7,58.0,29.84,ENE,70,2.0,6.0,91,0.00,,,0.71,WeatherCatV1.20B785,2013-09-25 23:07:00,
2013-09-25 19:12:00,60.5,57.9,29.84,ENE,63,2.0,4.0,91,0.00,,,0.71,WeatherCatV1.20B785,2013-09-25 23:12:00,
2013-09-25 19:17:00,60.4,58.1,29.85,NE,41,2.0,4.0,92,0.00,,,0.71,WeatherCatV1.20B785,2013-09-25 23:17:00,
2013-09-25 19:22:00,60.4,58.1,29.85,ENE,59,1.0,5.0,92,0.00,,,0.71,WeatherCatV1.20B785,2013-09-25 23:22:00,
2013-09-25 19:27:00,60.3,58.3,29.85,ENE,58,2.0,3.0,93,0.00,,,0.71,WeatherCatV1.20B785,2013-09-25 23:27:00,
2013-09-25 19:32:00,60.2,57.9,29.85,NE,56,2.0,4.0,92,0.00,,,0.71,WeatherCatV1.20B785,2013-09-25 23:32:00,
2013-09-25 19:37:00,60.1,57.8,29.85,NE,50,1.0,4.0,92,0.00,,,0.71,WeatherCatV1.20B785,2013-09-25 23:37:00,
2013-09-25 19:42:00,60.1,58.1,29.85,NE,49,4.0,4.0,93,0.00,,,0.71,WeatherCatV1.20B785,2013-09-25 23:42:00,
2013-09-25 19:47:00,60.0,58.0,29.85,East,86,2.0,3.0,93,0.00,,,0.71,WeatherCatV1.20B785,2013-09-25 23:47:00,
2013-09-25 19:52:00,60.0,58.0,29.85,NE,50,3.0,3.0,93,0.00,,,0.71,WeatherCatV1.20B785,2013-09-25 23:52:00,
2013-09-25 19:57:00,60.0,57.7,29.85,ENE,62,3.0,6.0,92,0.00,,,0.71,WeatherCatV1.20B785,2013-09-25 23:57:00,
2013-09-25 20:02:00,60.0,57.7,29.85,NE,50,4.0,4.0,92,0.00,,,0.71,WeatherCatV1.20B785,2013-09-26 00:02:00,
2013-09-25 20:07:00,60.0,57.7,29.85,ENE,58,1.0,7.0,92,0.00,,,0.71,WeatherCatV1.20B785,2013-09-26 00:07:00,
2013-09-25 20:12:00,60.1,57.8,29.85,NE,38,4.0,5.0,92,0.00,,,0.71,WeatherCatV1.20B785,2013-09-26 00:12:00,
2013-09-25 20:17:00,60.0,57.7,29.85,ENE,75,1.0,2.0,92,0.00,,,0.71,WeatherCatV1.20B785,2013-09-26 00:17:00,
2013-09-25 20:22:00,60.0,57.4,29.85,ENE,64,0.0,9.0,91,0.00,,,0.71,WeatherCatV1.20B785,2013-09-26 00:22:00,
2013-09-25 20:27:00,60.0,57.7,29.86,ENE,58,4.0,5.0,92,0.00,,,0.71,WeatherCatV1.20B785,2013-09-26 00:27:00,
2013-09-25 20:32:00,60.0,57.4,29.86,NE,48,0.0,3.0,91,0.00,,,0.71,WeatherCatV1.20B785,2013-09-26 00:32:00,
2013-09-25 20:37:00,60.0,57.4,29.86,ENE,61,0.0,3.0,91,0.00,,,0.71,WeatherCatV1.20B785,2013-09-26 00:37:00,
2013-09-25 20:42:00,60.0,57.7,29.87,ENE,77,0.0,0.0,92,0.00,,,0.71,WeatherCatV1.20B785,2013-09-26 00:42:00,
2013-09-25 20:47:00,60.0,57.7,29.87,East,82,0.0,0.0,92,0.00,,,0.71,WeatherCatV1.20B785,2013-09-26 00:47:00,
2013-09-25 20:52:00,59.9,57.9,29.87,East,84,0.0,2.0,93,0.00,,,0.71,WeatherCatV1.20B785,2013-09-26 00:52:00,
2013-09-25 20:57:00,59.9,57.3,29.87,ENE,58,0.0,2.0,91,0.00,,,0.71,WeatherCatV1.20B785,2013-09-26 00:57:00,
2013-09-25 21:02:00,60.0,57.4,29.87,East,84,1.0,2.0,91,0.00,,,0.71,WeatherCatV1.20B785,2013-09-26 01:02:00,
2013-09-25 21:07:00,60.0,57.7,29.87,ENE,77,0.0,0.0,92,0.00,,,0.71,WeatherCatV1.20B785,2013-09-26 01:07:00,
2013-09-25 21:12:00,59.9,57.6,29.88,East,94,0.0,1.0,92,0.00,,,0.71,WeatherCatV1.20B785,2013-09-26 01:12:00,
2013-09-25 21:17:00,59.9,57.6,29.88,East,93,0.0,1.0,92,0.00,,,0.71,WeatherCatV1.20B785,2013-09-26 01:17:00,
2013-09-25 21:22:00,59.9,57.6,29.88,East,82,0.0,4.0,92,0.00,,,0.71,WeatherCatV1.20B785,2013-09-26 01:22:00,
2013-09-25 21:27:00,59.9,57.6,29.88,East,83,0.0,1.0,92,0.00,,,0.71,WeatherCatV1.20B785,2013-09-26 01:27:00,
2013-09-25 21:32:00,59.9,57.6,29.88,East,83,0.0,1.0,92,0.00,,,0.71,WeatherCatV1.20B785,2013-09-26 01:32:00,
2013-09-25 21:37:00,59.9,57.9,29.88,East,83,0.0,1.0,93,0.00,,,0.71,WeatherCatV1.20B785,2013-09-26 01:37:00,
2013-09-25 21:42:00,59.8,57.8,29.87,East,93,0.0,1.0,93,0.00,,,0.71,WeatherCatV1.20B785,2013-09-26 01:42:00,
2013-09-25 21:47:00,59.7,57.7,29.88,ESE,114,0.0,2.0,93,0.00,,,0.71,WeatherCatV1.20B785,2013-09-26 01:47:00,
2013-09-25 21:52:00,59.7,58.0,29.88,East,91,0.0,2.0,94,0.00,,,0.71,WeatherCatV1.20B785,2013-09-26 01:52:00,
2013-09-25 21:57:00,59.6,57.9,29.88,ENE,76,1.0,2.0,94,0.00,,,0.71,WeatherCatV1.20B785,2013-09-26 01:57:00,
2013-09-25 22:02:00,59.5,57.8,29.88,ESE,109,1.0,3.0,94,0.00,,,0.71,WeatherCatV1.20B785,2013-09-26 02:02:00,
2013-09-25 22:07:00,59.4,57.7,29.88,NE,52,0.0,3.0,94,0.00,,,0.71,WeatherCatV1.20B785,2013-09-26 02:07:00,
2013-09-25 22:12:00,59.3,57.9,29.88,ENE,75,0.0,3.0,95,0.00,,,0.71,WeatherCatV1.20B785,2013-09-26 02:12:00,
2013-09-25 22:17:00,59.3,57.9,29.88,East,79,0.0,2.0,95,0.00,,,0.71,WeatherCatV1.20B785,2013-09-26 02:17:00,
2013-09-25 22:22:00,59.2,57.8,29.88,East,101,0.0,0.0,95,0.00,,,0.71,WeatherCatV1.20B785,2013-09-26 02:22:00,
2013-09-25 22:27:00,59.2,57.8,29.88,East,101,1.0,1.0,95,0.00,,,0.71,WeatherCatV1.20B785,2013-09-26 02:27:00,
2013-09-25 22:32:00,59.3,57.9,29.88,East,101,0.0,1.0,95,0.00,,,0.71,WeatherCatV1.20B785,2013-09-26 02:32:00,
2013-09-25 22:37:00,59.3,57.9,29.88,East,101,0.0,0.0,95,0.00,,,0.71,WeatherCatV1.20B785,2013-09-26 02:37:00,
2013-09-25 22:42:00,59.3,57.9,29.88,East,101,0.0,0.0,95,0.00,,,0.71,WeatherCatV1.20B785,2013-09-26 02:42:00,
2013-09-25 22:47:00,59.3,57.9,29.88,East,101,0.0,0.0,95,0.00,,,0.71,WeatherCatV1.20B785,2013-09-26 02:47:00,
2013-09-25 22:52:00,59.1,57.7,29.88,ENE,75,0.0,1.0,95,0.00,,,0.71,WeatherCatV1.20B785,2013-09-26 02:52:00,
2013-09-25 22:57:00,59.0,57.6,29.88,ENE,68,1.0,4.0,95,0.00,,,0.71,WeatherCatV1.20B785,2013-09-26 02:57:00,
2013-09-25 23:02:00,58.9,57.8,29.88,East,94,0.0,1.0,96,0.00,,,0.71,WeatherCatV1.20B785,2013-09-26 03:02:00,
2013-09-25 23:07:00,58.9,57.8,29.88,ESE,118,0.0,0.0,96,0.00,,,0.71,WeatherCatV1.20B785,2013-09-26 03:07:00,
2013-09-25 23:12:00,58.8,57.7,29.88,East,82,0.0,1.0,96,0.00,,,0.71,WeatherCatV1.20B785,2013-09-26 03:12:00,
2013-09-25 23:17:00,58.8,57.7,29.89,NE,46,1.0,3.0,96,0.00,,,0.71,WeatherCatV1.20B785,2013-09-26 03:17:00,
2013-09-25 23:22:00,58.7,57.6,29.88,ENE,68,0.0,2.0,96,0.00,,,0.71,WeatherCatV1.20B785,2013-09-26 03:22:00,
2013-09-25 23:27:00,58.6,57.5,29.88,ESE,118,0.0,1.0,96,0.00,,,0.71,WeatherCatV1.20B785,2013-09-26 03:27:00,
2013-09-25 23:32:00,58.6,57.5,29.88,NE,49,2.0,5.0,96,0.00,,,0.71,WeatherCatV1.20B785,2013-09-26 03:32:00,
2013-09-25 23:37:00,58.5,57.4,29.88,East,79,0.0,6.0,96,0.00,,,0.71,WeatherCatV1.20B785,2013-09-26 03:37:00,
2013-09-25 23:42:00,58.5,57.4,29.88,NE,53,2.0,4.0,96,0.00,,,0.71,WeatherCatV1.20B785,2013-09-26 03:42:00,
2013-09-25 23:47:00,58.5,57.1,29.89,East,98,0.0,3.0,95,0.00,,,0.71,WeatherCatV1.20B785,2013-09-26 03:47:00,
2013-09-25 23:52:00,58.4,57.0,29.89,ESE,119,0.0,1.0,95,0.00,,,0.71,WeatherCatV1.20B785,2013-09-26 03:52:00,
2013-09-25 23:57:00,58.4,57.0,29.89,SE,127,1.0,1.0,95,0.00,,,0.71,WeatherCatV1.20B785,2013-09-26 03:57:00,